"Period start","avg(HW err(1)/warn(2) (#))","avg(Visibility (m))","avg(Weather code (#))","avg(Precip intensity (mm/h))","min(HW err(1)/warn(2) (#))","max(HW err(1)/warn(2) (#))","std(HW err(1)/warn(2) (#))","med(HW err(1)/warn(2) (#))","min(Visibility (m))","max(Visibility (m))","std(Visibility (m))","med(Visibility (m))","min(Weather code (#))","max(Weather code (#))","std(Weather code (#))","med(Weather code (#))","min(Precip intensity (mm/h))","max(Precip intensity (mm/h))","std(Precip intensity (mm/h))","med(Precip intensity (mm/h))"
2017-07-16 00:00:00,2,42585,0,0.00,2,2,0,2,24607,50000,8499,45776,0,0,0,0,0.00,0.00,0.00,0.00
2017-07-16 00:10:00,2,34447,0,0.00,2,2,0,2,20302,49939,9612,29898,0,0,0,0,0.00,0.00,0.00,0.00
2017-07-16 00:20:00,2,40679,0,0.00,2,2,0,2,23402,50000,8444,41674,0,0,0,0,0.00,0.00,0.00,0.00
2017-07-16 00:30:00,2,35875,0,0.00,2,2,0,2,22698,50000,9458,35964,0,0,0,0,0.00,0.00,0.00,0.00
2017-07-16 00:40:00,2,33338,0,0.00,2,2,0,2,20416,50000,10323,30712,0,0,0,0,0.00,0.00,0.00,0.00
2017-07-16 00:50:00,2,33389,0,0.00,2,2,0,2,18540,50000,10168,33236,0,0,0,0,0.00,0.00,0.00,0.00
2017-07-16 01:00:00,2,38664,0,0.00,2,2,0,2,26223,50000,9130,38730,0,0,0,0,0.00,0.00,0.00,0.00
2017-07-16 01:10:00,2,39016,0,0.00,2,2,0,2,25872,50000,7132,40252,0,0,0,0,0.00,0.00,0.00,0.00
2017-07-16 01:20:00,2,46744,0,0.00,2,2,0,2,40977,50000,3868,49264,0,0,0,0,0.00,0.00,0.00,0.00
2017-07-16 01:30:00,2,47308,0,0.00,2,2,0,2,40184,50000,3455,49640,0,0,0,0,0.00,0.00,0.00,0.00
2017-07-16 01:40:00,2,40521,0,0.00,2,2,0,2,33630,50000,5792,40750,0,0,0,0,0.00,0.00,0.00,0.00
2017-07-16 01:50:00,2,38835,0,0.00,2,2,0,2,25905,49800,7976,40734,0,0,0,0,0.00,0.00,0.00,0.00
2017-07-16 02:00:00,2,35822,0,0.00,2,2,0,2,22921,50000,8703,36200,0,0,0,0,0.00,0.00,0.00,0.00
2017-07-16 02:10:00,2,36996,0,0.00,2,2,0,2,22408,50000,6966,37246,0,0,0,0,0.00,0.00,0.00,0.00
2017-07-16 02:20:00,2,43315,0,0.00,2,2,0,2,31934,50000,6812,44766,0,0,0,0,0.00,0.00,0.00,0.00
2017-07-16 02:30:00,2,46615,0,0.00,2,2,0,2,37967,50000,4748,50000,0,0,0,0,0.00,0.00,0.00,0.00
2017-07-16 02:40:00,2,36016,0,0.00,2,2,0,2,16027,50000,11809,37820,0,0,0,0,0.00,0.00,0.00,0.00
2017-07-16 02:50:00,2,40759,0,0.00,2,2,0,2,27916,50000,8488,41280,0,0,0,0,0.00,0.00,0.00,0.00
2017-07-16 03:00:00,2,40954,0,0.00,2,2,0,2,29326,50000,7238,40742,0,0,0,0,0.00,0.00,0.00,0.00
2017-07-16 03:10:00,2,37849,0,0.00,2,2,0,2,30121,50000,6151,37152,0,0,0,0,0.00,0.00,0.00,0.00
2017-07-16 03:20:00,2,41913,0,0.00,2,2,0,2,35687,48271,3914,41538,0,0,0,0,0.00,0.00,0.00,0.00
2017-07-16 03:30:00,2,43345,0,0.00,2,2,0,2,33759,50000,6529,44652,0,0,0,0,0.00,0.00,0.00,0.00
2017-07-16 03:40:00,2,45421,0,0.00,2,2,0,2,37679,50000,4805,46745,0,0,0,0,0.00,0.00,0.00,0.00
2017-07-16 03:50:00,2,44287,0,0.00,2,2,0,2,31062,50000,6906,47142,0,0,0,0,0.00,0.00,0.00,0.00
2017-07-16 04:00:00,2,44535,0,0.00,2,2,0,2,32956,50000,6092,46528,0,0,0,0,0.00,0.00,0.00,0.00
2017-07-16 04:10:00,2,47891,0,0.00,2,2,0,2,42761,50000,2738,50000,0,0,0,0,0.00,0.00,0.00,0.00
2017-07-16 04:20:00,2,45135,0,0.00,2,2,0,2,33484,50000,5830,48692,0,0,0,0,0.00,0.00,0.00,0.00
2017-07-16 04:30:00,2,47953,0,0.00,2,2,0,2,36165,50000,3993,49274,0,0,0,0,0.00,0.00,0.00,0.00
2017-07-16 04:40:00,2,47565,0,0.00,2,2,0,2,39699,50000,3048,48388,0,0,0,0,0.00,0.00,0.00,0.00
2017-07-16 04:50:00,2,47980,0,0.00,2,2,0,2,36474,50000,4321,50000,0,0,0,0,0.00,0.00,0.00,0.00
2017-07-16 05:00:00,1,43515,0,0.00,0,2,1,2,36442,50000,4403,43551,0,0,0,0,0.00,0.00,0.00,0.00
2017-07-16 05:10:00,0,48943,0,0.00,0,0,0,0,42477,50000,2270,50000,0,0,0,0,0.00,0.00,0.00,0.00
2017-07-16 05:20:00,0,47178,0,0.00,0,0,0,0,37880,50000,4396,49753,0,0,0,0,0.00,0.00,0.00,0.00
2017-07-16 05:30:00,0,48200,0,0.00,0,0,0,0,40897,50000,2998,50000,0,0,0,0,0.00,0.00,0.00,0.00
2017-07-16 05:40:00,0,49508,0,0.00,0,0,0,0,46965,50000,926,50000,0,0,0,0,0.00,0.00,0.00,0.00
2017-07-16 05:50:00,0,49741,0,0.00,0,0,0,0,48172,50000,570,50000,0,0,0,0,0.00,0.00,0.00,0.00
2017-07-16 06:00:00,0,47481,0,0.00,0,0,0,0,38486,50000,4034,50000,0,0,0,0,0.00,0.00,0.00,0.00
2017-07-16 06:10:00,0,49102,0,0.00,0,0,0,0,45258,50000,1795,50000,0,0,0,0,0.00,0.00,0.00,0.00
2017-07-16 06:20:00,0,48940,0,0.00,0,0,0,0,44895,50000,1746,50000,0,0,0,0,0.00,0.00,0.00,0.00
2017-07-16 06:30:00,0,48815,0,0.00,0,0,0,0,43918,50000,2026,50000,0,0,0,0,0.00,0.00,0.00,0.00
2017-07-16 06:40:00,0,38830,0,0.00,0,0,0,0,10838,50000,13174,43941,0,0,0,0,0.00,0.00,0.00,0.00
2017-07-16 06:50:00,0,50000,0,0.00,0,0,0,0,50000,50000,0,50000,0,0,0,0,0.00,0.00,0.00,0.00
2017-07-16 07:00:00,0,48955,0,0.00,0,0,0,0,45027,50000,1855,50000,0,0,0,0,0.00,0.00,0.00,0.00
2017-07-16 07:10:00,0,48213,0,0.00,0,0,0,0,40319,50000,3008,50000,0,0,0,0,0.00,0.00,0.00,0.00
2017-07-16 07:20:00,0,46508,0,0.00,0,0,0,0,38043,50000,4047,48138,0,0,0,0,0.00,0.00,0.00,0.00
2017-07-16 07:30:00,0,44539,0,0.00,0,0,0,0,39346,50000,3823,44798,0,0,0,0,0.00,0.00,0.00,0.00
2017-07-16 07:40:00,0,36785,0,0.00,0,0,0,0,8591,50000,14081,42748,0,0,0,0,0.00,0.00,0.00,0.00
2017-07-16 07:50:00,0,43519,0,0.00,0,0,0,0,14484,50000,10757,47715,0,0,0,0,0.00,0.00,0.00,0.00
2017-07-16 08:00:00,0,47437,0,0.00,0,0,0,0,41129,50000,2957,48388,0,0,0,0,0.00,0.00,0.00,0.00
2017-07-16 08:10:00,0,49244,0,0.00,0,0,0,0,47016,50000,1113,49704,0,0,0,0,0.00,0.00,0.00,0.00
2017-07-16 08:20:00,0,40803,0,0.00,0,0,0,0,13713,50000,12564,46686,0,0,0,0,0.00,0.00,0.00,0.00
2017-07-16 08:30:00,0,48620,0,0.00,0,0,0,0,42876,50000,2469,50000,0,0,0,0,0.00,0.00,0.00,0.00
2017-07-16 08:40:00,0,43613,0,0.00,0,0,0,0,18207,50000,9825,47256,0,0,0,0,0.00,0.00,0.00,0.00
2017-07-16 08:50:00,0,49261,0,0.00,0,0,0,0,45659,50000,1507,50000,0,0,0,0,0.00,0.00,0.00,0.00
2017-07-16 09:00:00,0,48548,0,0.00,0,0,0,0,45703,50000,1658,49308,0,0,0,0,0.00,0.00,0.00,0.00
2017-07-16 09:10:00,0,43242,0,0.00,0,0,0,0,13586,50000,11459,50000,0,0,0,0,0.00,0.00,0.00,0.00
2017-07-16 09:20:00,0,50000,0,0.00,0,0,0,0,50000,50000,0,50000,0,0,0,0,0.00,0.00,0.00,0.00
2017-07-16 09:30:00,0,48132,0,0.00,0,0,0,0,42025,50000,2376,48617,0,0,0,0,0.00,0.00,0.00,0.00
2017-07-16 09:40:00,0,48554,0,0.00,0,0,0,0,44439,50000,2159,50000,0,0,0,0,0.00,0.00,0.00,0.00
2017-07-16 09:50:00,0,49431,0,0.00,0,0,0,0,46772,50000,1067,50000,0,0,0,0,0.00,0.00,0.00,0.00
2017-07-16 10:00:00,0,49931,0,0.00,0,2,1,0,49306,50000,208,50000,0,0,0,0,0.00,0.00,0.00,0.00
2017-07-16 10:10:00,2,35866,0,0.00,2,2,0,2,6002,50000,16118,43025,0,0,0,0,0.00,0.00,0.00,0.00
2017-07-16 10:20:00,2,44716,0,0.00,2,2,0,2,21155,50000,10058,50000,0,0,0,0,0.00,0.00,0.00,0.00
2017-07-16 10:30:00,2,34449,0,0.00,2,2,0,2,12707,50000,13271,39578,0,0,0,0,0.00,0.00,0.00,0.00
2017-07-16 10:40:00,2,49319,0,0.00,2,2,0,2,43193,50000,2042,50000,0,0,0,0,0.00,0.00,0.00,0.00
2017-07-16 10:50:00,2,49466,0,0.00,2,2,0,2,46997,50000,920,50000,0,0,0,0,0.00,0.00,0.00,0.00
2017-07-16 11:00:00,2,44568,0,0.00,2,2,0,2,37162,50000,4390,45260,0,0,0,0,0.00,0.00,0.00,0.00
2017-07-16 11:10:00,2,48823,0,0.00,2,2,0,2,46504,50000,1355,49676,0,0,0,0,0.00,0.00,0.00,0.00
2017-07-16 11:20:00,2,49464,0,0.00,2,2,0,2,46273,50000,1127,50000,0,0,0,0,0.00,0.00,0.00,0.00
2017-07-16 11:30:00,2,48601,0,0.00,2,2,0,2,41929,50000,2524,49838,0,0,0,0,0.00,0.00,0.00,0.00
2017-07-16 11:40:00,2,45731,0,0.00,2,2,0,2,28052,50000,7293,50000,0,0,0,0,0.00,0.00,0.00,0.00
2017-07-16 11:50:00,2,46730,0,0.00,2,2,0,2,32605,50000,4953,47840,0,0,0,0,0.00,0.00,0.00,0.00
2017-07-16 12:00:00,2,49442,0,0.00,2,2,0,2,44422,50000,1673,50000,0,0,0,0,0.00,0.00,0.00,0.00
2017-07-16 12:10:00,2,50000,0,0.00,2,2,0,2,50000,50000,0,50000,0,0,0,0,0.00,0.00,0.00,0.00
2017-07-16 12:20:00,2,49376,0,0.00,2,2,0,2,46265,50000,1174,50000,0,0,0,0,0.00,0.00,0.00,0.00
2017-07-16 12:30:00,2,49995,0,0.00,2,2,0,2,49947,50000,16,50000,0,0,0,0,0.00,0.00,0.00,0.00
2017-07-16 12:40:00,2,50000,0,0.00,2,2,0,2,50000,50000,0,50000,0,0,0,0,0.00,0.00,0.00,0.00
2017-07-16 12:50:00,2,49826,0,0.00,2,2,0,2,48262,50000,521,50000,0,0,0,0,0.00,0.00,0.00,0.00
2017-07-16 13:00:00,2,49222,0,0.00,2,2,0,2,44187,50000,1778,50000,0,0,0,0,0.00,0.00,0.00,0.00
2017-07-16 13:10:00,2,50000,0,0.00,2,2,0,2,50000,50000,0,50000,0,0,0,0,0.00,0.00,0.00,0.00
2017-07-16 13:20:00,2,50000,0,0.00,2,2,0,2,50000,50000,0,50000,0,0,0,0,0.00,0.00,0.00,0.00
2017-07-16 13:30:00,2,49759,0,0.00,2,2,0,2,47592,50000,722,50000,0,0,0,0,0.00,0.00,0.00,0.00
2017-07-16 13:40:00,2,49742,0,0.00,2,2,0,2,48305,50000,547,50000,0,0,0,0,0.00,0.00,0.00,0.00
2017-07-16 13:50:00,2,49987,0,0.00,2,2,0,2,49869,50000,39,50000,0,0,0,0,0.00,0.00,0.00,0.00
2017-07-16 14:00:00,2,50000,0,0.00,2,2,0,2,50000,50000,0,50000,0,0,0,0,0.00,0.00,0.00,0.00
2017-07-16 14:10:00,2,50000,0,0.00,0,2,1,2,50000,50000,0,50000,0,0,0,0,0.00,0.00,0.00,0.00
2017-07-16 14:20:00,0,50000,0,0.00,0,0,0,0,50000,50000,0,50000,0,0,0,0,0.00,0.00,0.00,0.00
2017-07-16 14:30:00,0,50000,0,0.00,0,0,0,0,50000,50000,0,50000,0,0,0,0,0.00,0.00,0.00,0.00
2017-07-16 14:40:00,0,50000,0,0.00,0,0,0,0,50000,50000,0,50000,0,0,0,0,0.00,0.00,0.00,0.00
2017-07-16 14:50:00,0,50000,0,0.00,0,0,0,0,50000,50000,0,50000,0,0,0,0,0.00,0.00,0.00,0.00
2017-07-16 15:00:00,0,50000,0,0.00,0,0,0,0,50000,50000,0,50000,0,0,0,0,0.00,0.00,0.00,0.00
2017-07-16 15:10:00,0,49784,0,0.00,0,0,0,0,47841,50000,648,50000,0,0,0,0,0.00,0.00,0.00,0.00
2017-07-16 15:20:00,0,49984,0,0.00,0,0,0,0,49838,50000,49,50000,0,0,0,0,0.00,0.00,0.00,0.00
2017-07-16 15:30:00,0,50000,0,0.00,0,0,0,0,50000,50000,0,50000,0,0,0,0,0.00,0.00,0.00,0.00
2017-07-16 15:40:00,0,50000,0,0.00,0,0,0,0,50000,50000,0,50000,0,0,0,0,0.00,0.00,0.00,0.00
2017-07-16 15:50:00,0,50000,0,0.00,0,0,0,0,50000,50000,0,50000,0,0,0,0,0.00,0.00,0.00,0.00
2017-07-16 16:00:00,0,50000,0,0.00,0,0,0,0,50000,50000,0,50000,0,0,0,0,0.00,0.00,0.00,0.00
2017-07-16 16:10:00,0,50000,0,0.00,0,0,0,0,50000,50000,0,50000,0,0,0,0,0.00,0.00,0.00,0.00
2017-07-16 16:20:00,0,50000,0,0.00,0,0,0,0,50000,50000,0,50000,0,0,0,0,0.00,0.00,0.00,0.00
2017-07-16 16:30:00,0,50000,0,0.00,0,0,0,0,50000,50000,0,50000,0,0,0,0,0.00,0.00,0.00,0.00
2017-07-16 16:40:00,1,50000,0,0.00,0,2,1,2,50000,50000,0,50000,0,0,0,0,0.00,0.00,0.00,0.00
2017-07-16 16:50:00,2,50000,0,0.00,2,2,0,2,50000,50000,0,50000,0,0,0,0,0.00,0.00,0.00,0.00
2017-07-16 17:00:00,0,50000,0,0.00,0,2,1,0,50000,50000,0,50000,0,0,0,0,0.00,0.00,0.00,0.00
2017-07-16 17:10:00,0,50000,0,0.00,0,0,0,0,50000,50000,0,50000,0,0,0,0,0.00,0.00,0.00,0.00
2017-07-16 17:20:00,0,50000,0,0.00,0,0,0,0,50000,50000,0,50000,0,0,0,0,0.00,0.00,0.00,0.00
2017-07-16 17:30:00,0,50000,0,0.00,0,0,0,0,50000,50000,0,50000,0,0,0,0,0.00,0.00,0.00,0.00
2017-07-16 17:40:00,0,50000,0,0.00,0,0,0,0,50000,50000,0,50000,0,0,0,0,0.00,0.00,0.00,0.00
2017-07-16 17:50:00,0,50000,0,0.00,0,0,0,0,50000,50000,0,50000,0,0,0,0,0.00,0.00,0.00,0.00
2017-07-16 18:00:00,0,50000,0,0.00,0,0,0,0,50000,50000,0,50000,0,0,0,0,0.00,0.00,0.00,0.00
2017-07-16 18:10:00,0,50000,0,0.00,0,0,0,0,50000,50000,0,50000,0,0,0,0,0.00,0.00,0.00,0.00
2017-07-16 18:20:00,0,50000,0,0.00,0,0,0,0,50000,50000,0,50000,0,0,0,0,0.00,0.00,0.00,0.00
2017-07-16 18:30:00,0,49986,0,0.00,0,0,0,0,49860,50000,42,50000,0,0,0,0,0.00,0.00,0.00,0.00
2017-07-16 18:40:00,0,50000,0,0.00,0,0,0,0,50000,50000,0,50000,0,0,0,0,0.00,0.00,0.00,0.00
2017-07-16 18:50:00,0,50000,0,0.00,0,0,0,0,50000,50000,0,50000,0,0,0,0,0.00,0.00,0.00,0.00
2017-07-16 19:00:00,0,50000,0,0.00,0,0,0,0,50000,50000,0,50000,0,0,0,0,0.00,0.00,0.00,0.00
2017-07-16 19:10:00,0,49833,0,0.00,0,0,0,0,48904,50000,354,50000,0,0,0,0,0.00,0.00,0.00,0.00
2017-07-16 19:20:00,0,49304,0,0.00,0,0,0,0,45105,50000,1465,50000,0,0,0,0,0.00,0.00,0.00,0.00
2017-07-16 19:30:00,0,50000,0,0.00,0,0,0,0,50000,50000,0,50000,0,0,0,0,0.00,0.00,0.00,0.00
2017-07-16 19:40:00,0,50000,0,0.00,0,0,0,0,50000,50000,0,50000,0,0,0,0,0.00,0.00,0.00,0.00
2017-07-16 19:50:00,0,50000,0,0.00,0,0,0,0,50000,50000,0,50000,0,0,0,0,0.00,0.00,0.00,0.00
2017-07-16 20:00:00,0,49911,0,0.00,0,0,0,0,49106,50000,268,50000,0,0,0,0,0.00,0.00,0.00,0.00
2017-07-16 20:10:00,0,49858,0,0.00,0,0,0,0,49233,50000,250,50000,0,0,0,0,0.00,0.00,0.00,0.00
2017-07-16 20:20:00,0,49876,0,0.00,0,0,0,0,48757,50000,373,50000,0,0,0,0,0.00,0.00,0.00,0.00
2017-07-16 20:30:00,0,49736,0,0.00,0,0,0,0,47880,50000,638,50000,0,0,0,0,0.00,0.00,0.00,0.00
2017-07-16 20:40:00,0,49732,0,0.00,0,0,0,0,47937,50000,626,50000,0,0,0,0,0.00,0.00,0.00,0.00
2017-07-16 20:50:00,0,49591,0,0.00,0,0,0,0,46939,50000,907,50000,0,0,0,0,0.00,0.00,0.00,0.00
2017-07-16 21:00:00,0,50000,0,0.00,0,0,0,0,49997,50000,1,50000,0,0,0,0,0.00,0.00,0.00,0.00
2017-07-16 21:10:00,0,49667,0,0.00,0,0,0,0,46787,50000,961,50000,0,0,0,0,0.00,0.00,0.00,0.00
2017-07-16 21:20:00,0,49586,0,0.00,0,0,0,0,45857,50000,1243,50000,0,0,0,0,0.00,0.00,0.00,0.00
2017-07-16 21:30:00,0,49742,0,0.00,0,0,0,0,48196,50000,563,50000,0,0,0,0,0.00,0.00,0.00,0.00
2017-07-16 21:40:00,0,42831,0,0.00,0,0,0,0,24167,50000,9636,48996,0,0,0,0,0.00,0.00,0.00,0.00
2017-07-16 21:50:00,0,48943,0,0.00,0,0,0,0,40350,50000,2877,50000,0,0,0,0,0.00,0.00,0.00,0.00
2017-07-16 22:00:00,0,49237,0,0.00,0,0,0,0,45508,50000,1400,50000,0,0,0,0,0.00,0.00,0.00,0.00
2017-07-16 22:10:00,0,49275,0,0.00,0,0,0,0,46013,50000,1459,50000,0,0,0,0,0.00,0.00,0.00,0.00
2017-07-16 22:20:00,1,45115,0,0.00,0,2,1,0,33412,50000,6182,48224,0,0,0,0,0.00,0.00,0.00,0.00
2017-07-16 22:30:00,2,47822,0,0.00,0,2,1,2,36740,50000,4305,50000,0,0,0,0,0.00,0.00,0.00,0.00
2017-07-16 22:40:00,1,42128,0,0.00,0,2,1,2,25290,50000,9425,47141,0,0,0,0,0.00,0.00,0.00,0.00
2017-07-16 22:50:00,0,40720,0,0.00,0,0,0,0,34601,50000,4219,41584,0,0,0,0,0.00,0.00,0.00,0.00
2017-07-16 23:00:00,0,43608,0,0.00,0,0,0,0,23419,50000,8339,46178,0,0,0,0,0.00,0.00,0.00,0.00
2017-07-16 23:10:00,0,41663,0,0.00,0,2,1,0,28808,50000,7162,43686,0,0,0,0,0.00,0.00,0.00,0.00
2017-07-16 23:20:00,1,36645,0,0.00,0,2,1,0,20269,50000,8203,37780,0,0,0,0,0.00,0.00,0.00,0.00
2017-07-16 23:30:00,0,47582,0,0.00,0,2,1,0,41591,50000,2863,48752,0,0,0,0,0.00,0.00,0.00,0.00
2017-07-16 23:40:00,0,43907,0,0.00,0,2,1,0,32308,50000,5865,45436,0,0,0,0,0.00,0.00,0.00,0.00
2017-07-16 23:50:00,1,49176,0,0.00,0,2,1,2,45865,50000,1356,50000,0,0,0,0,0.00,0.00,0.00,0.00
